Location: München
(48.1351°N, 11.5820°E)
Time: 04:58:48
(UTC+02:00)

ISS - Pass Details

Date: 19 May 2021
Orbit: 417 x 422 km, 51.6° (Epoch: 13 June)

Event Time Altitude Azimuth Distance (km) Brightness Sun altitude
Rises 02:06:25 0° 292° (WNW) 2,371 0.2 -20.9°
Reaches altitude 10° 02:08:32 10° 290° (WNW) 1,505 -0.9 -20.8°
Enters shadow 02:09:12 15° 288° (WNW) 1,235 -1.4 -20.8°
